Location: Ravensburg
(47.7866°N, 9.6124°E)
Time: 09:52:33
(UTC+02:00)

STARS - Pass Details

Date: 21 March 2026
Orbit: 575 x 588 km, 98.2° (Epoch: 18 April)

Event Time Altitude Azimuth Distance (km) Brightness Sun altitude
Rises 02:12:28 0° 17° (NNE) 2,799 ? -37.0°
Reaches altitude 10° 02:14:40 10° 22° (NNE) 1,896 ? -36.8°
Enters shadow 02:15:10 13° 24° (NNE) 1,695 ? -36.8°
